{"data":{"norad_id":52334,"epoch":"2026-05-25T05:13:00.698016Z","epoch_age_seconds":59504,"freshness":"FRESH","line1":"1 52334U 22045D   26145.21736919 -.00000412  00000+0 -77737-5 0  9990","line2":"2 52334  53.2125 225.5737 0001128  98.0177 262.0943 15.08838463227184","mean_motion":15.08838463,"eccentricity":0.0001128,"inclination_deg":53.2125,"raan_deg":225.5737,"arg_perigee_deg":98.0177,"mean_anomaly_deg":262.0943,"bstar":-7.7737e-6,"rev_number":22718,"period_min":95.437651896603,"perigee_km":538.9677495244,"apogee_km":540.52842440001,"semimajor_km":6917.8850869622,"source":"CELESTRAK","updated_at":"2026-05-25T13:38:17.112945Z"}}